TimeCST,TemperatureF,Dew PointF,Humidity,Sea Level PressureIn,VisibilityMPH,Wind Direction,Wind SpeedMPH,Gust SpeedMPH,PrecipitationIn,Events,Conditions,WindDirDegrees,DateUTC
12:15 AM,17.6,14.0,86,30.09,10.0,ENE,5.8,-,N/A,,Clear,70,2013-02-06 06:15:00
12:35 AM,17.6,14.0,86,30.09,10.0,ENE,5.8,-,N/A,,Clear,60,2013-02-06 06:35:00
12:55 AM,15.8,12.2,86,30.08,10.0,ENE,4.6,-,N/A,,Clear,70,2013-02-06 06:55:00
1:15 AM,15.8,12.2,86,30.09,10.0,East,4.6,-,N/A,,Clear,90,2013-02-06 07:15:00
1:35 AM,15.8,12.2,86,30.08,10.0,East,4.6,-,N/A,,Clear,90,2013-02-06 07:35:00
1:55 AM,15.8,12.2,86,30.09,10.0,ESE,4.6,-,N/A,,Clear,110,2013-02-06 07:55:00
2:15 AM,15.8,12.2,86,30.10,10.0,SE,5.8,-,N/A,,Clear,140,2013-02-06 08:15:00
2:35 AM,15.8,12.2,86,30.08,10.0,East,5.8,-,N/A,,Clear,100,2013-02-06 08:35:00
2:55 AM,15.8,12.2,86,30.08,10.0,ESE,4.6,-,N/A,,Clear,120,2013-02-06 08:55:00
3:15 AM,15.8,12.2,86,30.09,10.0,SE,4.6,-,N/A,,Clear,140,2013-02-06 09:15:00
3:35 AM,15.8,10.4,79,30.09,10.0,SSW,3.5,-,N/A,,Clear,200,2013-02-06 09:35:00
3:55 AM,14.0,10.4,86,30.09,10.0,Calm,Calm,-,N/A,,Clear,0,2013-02-06 09:55:00
4:15 AM,15.8,12.2,86,30.08,10.0,SSE,3.5,-,N/A,,Mostly Cloudy,160,2013-02-06 10:15:00
4:35 AM,15.8,12.2,86,30.08,10.0,SE,3.5,-,N/A,,Mostly Cloudy,130,2013-02-06 10:35:00
4:55 AM,17.6,12.2,79,30.08,10.0,South,9.2,-,N/A,,Scattered Clouds,170,2013-02-06 10:55:00
5:15 AM,17.6,14.0,86,30.09,10.0,South,6.9,-,N/A,,Partly Cloudy,170,2013-02-06 11:15:00
5:35 AM,17.6,14.0,86,30.09,10.0,SSE,6.9,-,N/A,,Mostly Cloudy,160,2013-02-06 11:35:00
5:55 AM,19.4,14.0,80,30.08,10.0,SE,4.6,-,N/A,,Overcast,140,2013-02-06 11:55:00
6:15 AM,19.4,14.0,80,30.08,-9999.0,SE,6.9,-,N/A,,Overcast,140,2013-02-06 12:15:00
6:35 AM,21.2,15.8,80,30.07,10.0,SE,10.4,-,N/A,,Overcast,140,2013-02-06 12:35:00
6:55 AM,21.2,15.8,80,30.07,10.0,SSE,8.1,-,N/A,,Overcast,150,2013-02-06 12:55:00
7:15 AM,21.2,15.8,80,30.08,10.0,SSE,9.2,-,N/A,,Overcast,160,2013-02-06 13:15:00
7:35 AM,21.2,17.6,86,30.08,10.0,SSE,9.2,-,N/A,,Overcast,160,2013-02-06 13:35:00
7:55 AM,21.2,17.6,86,30.06,9.0,SSE,10.4,-,N/A,,Mostly Cloudy,150,2013-02-06 13:55:00
8:15 AM,23.0,17.6,80,30.05,9.0,SE,11.5,-,N/A,,Clear,140,2013-02-06 14:15:00
8:35 AM,23.0,19.4,86,30.06,9.0,SSE,11.5,-,N/A,,Partly Cloudy,150,2013-02-06 14:35:00
8:55 AM,24.8,19.4,80,30.05,9.0,SE,10.4,-,N/A,,Partly Cloudy,140,2013-02-06 14:55:00
9:15 AM,26.6,21.2,80,30.05,9.0,SSE,12.7,-,N/A,,Scattered Clouds,150,2013-02-06 15:15:00
9:35 AM,28.4,23.0,80,30.04,9.0,SSE,13.8,-,N/A,,Scattered Clouds,150,2013-02-06 15:35:00
9:55 AM,28.4,24.8,86,30.03,8.0,SSE,15.0,-,N/A,,Scattered Clouds,150,2013-02-06 15:55:00
10:35 AM,32.0,26.6,80,30.02,9.0,SSE,19.6,25.3,N/A,,Clear,160,2013-02-06 16:35:00
11:15 AM,33.8,28.4,81,30.01,9.0,SSE,20.7,-,N/A,,Clear,160,2013-02-06 17:15:00
11:35 AM,33.8,28.4,81,30.00,10.0,South,21.9,27.6,N/A,,Partly Cloudy,170,2013-02-06 17:35:00
11:55 AM,33.8,30.2,87,29.99,9.0,South,19.6,26.5,N/A,,Clear,170,2013-02-06 17:55:00
12:15 PM,35.6,30.2,81,29.98,9.0,South,21.9,-,N/A,,Clear,170,2013-02-06 18:15:00
12:35 PM,35.6,30.2,81,29.97,9.0,South,18.4,-,N/A,,Scattered Clouds,170,2013-02-06 18:35:00
12:55 PM,35.6,32.0,87,29.96,9.0,SSE,23.0,28.8,N/A,,Partly Cloudy,160,2013-02-06 18:55:00
1:15 PM,35.6,32.0,87,29.94,9.0,South,20.7,-,N/A,,Partly Cloudy,170,2013-02-06 19:15:00
1:35 PM,35.6,32.0,87,29.93,9.0,South,23.0,29.9,N/A,,Clear,170,2013-02-06 19:35:00
1:55 PM,35.6,32.0,87,29.92,5.0,South,18.4,27.6,N/A,,Haze,170,2013-02-06 19:55:00
2:15 PM,35.6,32.0,87,29.90,9.0,South,20.7,-,N/A,,Mostly Cloudy,170,2013-02-06 20:15:00
2:35 PM,35.6,32.0,87,29.90,9.0,SSE,20.7,-,N/A,,Mostly Cloudy,160,2013-02-06 20:35:00
2:55 PM,35.6,32.0,87,29.90,9.0,SSE,18.4,24.2,N/A,,Mostly Cloudy,160,2013-02-06 20:55:00
3:35 PM,35.6,32.0,87,29.90,8.0,SSE,12.7,20.7,N/A,,Partly Cloudy,160,2013-02-06 21:35:00
3:55 PM,35.6,32.0,87,29.91,9.0,South,15.0,20.7,N/A,,Partly Cloudy,170,2013-02-06 21:55:00
4:15 PM,37.4,32.0,81,29.90,9.0,South,17.3,-,N/A,,Mostly Cloudy,170,2013-02-06 22:15:00
4:35 PM,37.4,32.0,81,29.89,9.0,South,15.0,20.7,N/A,,Overcast,170,2013-02-06 22:35:00
4:55 PM,37.4,32.0,81,29.90,9.0,South,12.7,-,N/A,,Mostly Cloudy,180,2013-02-06 22:55:00
5:15 PM,37.4,32.0,81,29.89,9.0,South,16.1,-,N/A,,Scattered Clouds,170,2013-02-06 23:15:00
5:35 PM,37.4,32.0,81,29.89,10.0,South,17.3,-,N/A,,Mostly Cloudy,170,2013-02-06 23:35:00
5:55 PM,37.4,32.0,81,29.90,10.0,South,15.0,-,N/A,,Overcast,170,2013-02-06 23:55:00
6:15 PM,37.4,32.0,81,29.89,10.0,SSE,15.0,-,N/A,,Overcast,160,2013-02-07 00:15:00
6:35 PM,35.6,32.0,87,29.90,9.0,SSE,15.0,-,N/A,Rain,Light Rain,160,2013-02-07 00:35:00
6:55 PM,37.4,32.0,81,29.91,10.0,SSE,12.7,-,N/A,Rain,Light Rain,160,2013-02-07 00:55:00
7:15 PM,37.4,32.0,81,29.91,9.0,SSE,12.7,18.4,N/A,Rain,Light Rain,160,2013-02-07 01:15:00
7:35 PM,35.6,33.8,93,29.92,5.0,SSE,12.7,-,N/A,Rain,Light Rain,160,2013-02-07 01:35:00
7:55 PM,37.4,33.8,87,29.92,6.0,SSE,12.7,-,0.01,Rain,Light Rain,160,2013-02-07 01:55:00
8:15 PM,37.4,33.8,87,29.93,8.0,South,6.9,-,N/A,Rain,Light Rain,170,2013-02-07 02:15:00
8:35 PM,37.4,33.8,87,29.92,10.0,South,11.5,-,N/A,,Overcast,170,2013-02-07 02:35:00
8:55 PM,35.6,33.8,93,29.92,10.0,South,10.4,-,N/A,,Overcast,170,2013-02-07 02:55:00
9:15 PM,35.6,33.8,93,29.93,10.0,South,8.1,-,N/A,,Overcast,180,2013-02-07 03:15:00
9:35 PM,35.6,33.8,93,29.92,10.0,South,9.2,-,N/A,,Overcast,170,2013-02-07 03:35:00
9:55 PM,35.6,32.0,87,29.92,10.0,SSE,6.9,-,N/A,,Overcast,160,2013-02-07 03:55:00
10:15 PM,35.6,32.0,87,29.92,10.0,SSE,8.1,-,N/A,,Overcast,160,2013-02-07 04:15:00
10:35 PM,35.6,32.0,87,29.92,10.0,South,4.6,-,N/A,,Overcast,170,2013-02-07 04:35:00
10:55 PM,35.6,32.0,87,29.91,10.0,SSE,6.9,-,N/A,,Overcast,160,2013-02-07 04:55:00
11:15 PM,35.6,32.0,87,29.91,10.0,SSE,6.9,-,N/A,,Overcast,160,2013-02-07 05:15:00
11:35 PM,35.6,32.0,87,29.91,10.0,SSE,8.1,-,N/A,,Mostly Cloudy,160,2013-02-07 05:35:00
11:55 PM,35.6,32.0,87,29.92,10.0,SSE,6.9,-,N/A,,Mostly Cloudy,160,2013-02-07 05:55:00